DateTimeUTC,F1_A11,F1_S11,BsB_S11,BsG_S11,BsR_S11,BbsB_S11,BbsG_S11,BbsR_S11,BaB_A11,BaG_A11,BaR_A11,Tu_S11,T_S11,Uu_S11,U_S11,P_S11,T1_A11
2021-10-14T01:00:00Z,00000200,21000000,,,,,,,0000.10,0000.04,0000.34,16.7,23.6,00.9,00.6,0663.9,30.9
2021-10-14T01:01:00Z,00000200,21000000,,,,,,,-000.27,-000.13,-000.05,16.7,23.6,00.9,00.6,0663.9,30.9
2021-10-14T01:02:00Z,00000200,21000000,,,,,,,0000.17,0000.21,0000.10,16.7,23.6,00.9,00.6,0663.9,30.9
2021-10-14T01:03:00Z,00000200,61000000,,,,,,,0000.98,0000.81,0000.60,16.7,23.6,00.9,00.6,0663.9,30.9
2021-10-14T01:04:00Z,00000200,41000000,0007.82,0005.26,0003.56,0000.92,0000.86,0000.66,0001.82,0001.50,0001.22,17.0,23.5,01.0,00.7,0664.7,30.9
2021-10-14T01:05:00Z,00000200,01000000,0007.28,0005.62,0003.32,0000.57,0000.92,0000.60,0001.19,0000.81,0000.55,17.0,23.5,01.1,00.8,0664.7,30.9
2021-10-14T01:06:00Z,00000200,01000000,0007.63,0005.32,0003.18,0000.83,0000.94,0000.66,0001.34,0001.47,0000.93,17.0,23.4,01.2,00.8,0664.7,30.9
2021-10-14T01:07:00Z,00000200,01000000,0007.25,0005.53,0002.70,0000.81,0000.91,0000.34,0002.16,0001.65,0001.38,16.9,23.4,01.3,00.9,0664.7,30.9
2021-10-14T01:08:00Z,00000200,01000000,0007.02,0005.29,0003.59,0001.15,0001.05,0000.58,0000.88,0000.77,0000.50,16.8,23.4,01.3,00.9,0664.7,30.9
2021-10-14T01:09:00Z,00000200,01000000,0007.69,0005.62,0003.48,0001.17,0000.64,0000.71,0001.54,0001.49,0001.12,16.8,23.3,01.3,00.9,0664.6,30.9
2021-10-14T01:10:00Z,00000200,01000000,0006.75,0005.29,0002.84,0000.67,0000.95,0000.01,0001.46,0001.77,0001.30,16.7,23.3,01.4,01.0,0664.6,30.9
2021-10-14T01:11:00Z,00000200,01000000,0007.31,0005.83,0003.66,0000.52,0000.73,0000.81,0001.19,0000.76,0000.79,16.7,23.3,01.4,00.9,0664.6,30.9
2021-10-14T01:12:00Z,00000200,01000000,0007.21,0005.81,0003.30,0000.72,0000.64,0000.32,0001.07,0001.01,0000.55,16.7,23.2,01.3,00.9,0664.7,30.8
2021-10-14T01:13:00Z,00000200,01000000,0008.69,0005.33,0003.52,0001.54,0000.69,0000.51,0001.33,0001.25,0000.63,16.7,23.3,01.3,00.8,0664.6,30.9
2021-10-14T01:14:00Z,00000200,01000000,0007.34,0005.32,0003.65,0000.77,0000.56,0000.53,0001.48,0001.15,0001.18,16.8,23.3,01.1,00.8,0664.6,30.9
2021-10-14T01:15:00Z,00000200,01000000,0007.75,0005.70,0003.38,0001.26,0000.90,0000.59,0001.18,0001.19,0001.27,16.8,23.3,01.2,00.8,0664.6,30.9
2021-10-14T01:16:00Z,00000200,01000000,0007.78,0005.61,0003.13,0000.49,0000.85,0000.55,0001.75,0001.55,0000.75,16.9,23.3,01.1,00.8,0664.6,30.9
2021-10-14T01:17:00Z,00000200,01000000,0007.08,0005.39,0003.43,0000.74,0001.00,0000.34,0001.54,0001.33,0001.39,17.0,23.3,01.2,00.8,0664.6,30.9
2021-10-14T01:18:00Z,00000200,01000000,0007.66,0004.69,0002.90,0000.71,0000.77,0000.32,0001.83,0001.51,0001.00,17.0,23.4,01.3,00.9,0664.6,30.9
2021-10-14T01:19:00Z,00000200,01000000,0007.00,0005.31,0003.18,0000.67,0000.83,0000.44,0001.34,0001.63,0001.19,17.1,23.4,01.4,00.9,0664.5,30.9
2021-10-14T01:20:00Z,00000200,01000000,0007.18,0005.00,0003.48,0001.25,0000.68,0000.72,0001.31,0001.02,0000.76,17.1,23.4,01.4,00.9,0664.4,30.9
2021-10-14T01:21:00Z,00000200,01000000,0007.90,0005.04,0003.23,0001.10,0000.79,0000.40,0001.02,0000.88,0000.82,17.0,23.4,01.4,00.9,0664.5,30.9
2021-10-14T01:22:00Z,00000200,01000000,0008.29,0004.68,0003.02,0000.99,0000.69,0000.47,0001.30,0000.84,0000.77,17.0,23.4,01.5,01.0,0664.4,30.9
2021-10-14T01:23:00Z,00000200,01000000,0007.35,0005.19,0003.09,0001.08,0000.42,0000.29,0001.48,0001.63,0001.17,16.9,23.4,01.4,01.0,0664.5,30.9
2021-10-14T01:24:00Z,00000200,01000000,0007.11,0004.99,0003.51,0000.69,0000.62,0000.63,0001.41,0001.31,0000.65,16.9,23.3,01.3,00.9,0664.5,30.9
2021-10-14T01:25:00Z,00000200,01000000,0008.12,0005.17,0003.32,0001.03,0000.54,0000.80,0001.10,0000.48,0000.73,16.8,23.3,01.4,00.9,0664.5,30.9
2021-10-14T01:26:00Z,00000200,01000000,0007.45,0005.11,0003.19,0000.16,0001.09,0000.46,0001.22,0001.46,0000.93,16.8,23.3,01.4,00.9,0664.5,30.9
2021-10-14T01:27:00Z,00000200,01000000,0007.38,0004.72,0003.29,0000.87,0000.86,0000.47,0001.56,0001.19,0001.11,16.8,23.3,01.5,01.0,0664.5,30.9
2021-10-14T01:28:00Z,00000200,01000000,0006.85,0005.05,0002.98,0001.22,0000.68,0000.37,0001.38,0001.64,0000.69,16.8,23.2,01.5,01.0,0664.5,30.9
2021-10-14T01:29:00Z,00000200,01000000,0006.99,0005.02,0003.18,0000.33,0000.38,0000.55,0001.06,0000.65,0001.34,16.8,23.3,01.5,01.0,0664.6,30.9
2021-10-14T01:30:00Z,00000200,01000000,0006.82,0004.67,0003.03,0000.67,0000.49,0000.78,0001.49,0001.43,0000.44,16.9,23.3,01.5,01.0,0664.6,30.9
2021-10-14T01:31:00Z,00000200,01000000,0007.10,0004.81,0002.96,0000.68,0000.79,0000.27,0001.67,0001.56,0001.01,17.0,23.3,01.5,01.0,0664.5,30.9
2021-10-14T01:32:00Z,00000200,01000000,0005.59,0004.80,0003.08,0001.11,0000.25,0000.38,0001.18,0000.84,0001.32,17.1,23.3,01.6,01.1,0664.5,30.9
2021-10-14T01:33:00Z,00000200,01000000,0007.01,0004.83,0003.07,0000.66,0000.64,0000.35,0001.34,0001.12,0000.39,17.1,23.4,01.6,01.1,0664.6,30.9
2021-10-14T01:34:00Z,00000200,01000000,0007.41,0004.58,0002.90,0000.42,0000.52,0000.26,0000.50,0001.00,0000.65,17.2,23.4,01.6,01.1,0664.5,30.9
2021-10-14T01:35:00Z,00000200,01000000,0006.66,0004.51,0002.82,0000.56,0000.69,0000.39,0001.43,0001.20,0000.75,17.2,23.5,01.7,01.1,0664.5,30.9
2021-10-14T01:36:00Z,00000200,01000000,0007.12,0004.71,0003.07,0001.59,0000.30,0000.34,0001.01,0000.90,0000.52,17.1,23.5,01.6,01.1,0664.5,30.9
2021-10-14T01:37:00Z,00000200,01000000,0006.06,0004.62,0002.63,0000.85,0000.42,0000.52,0001.04,0000.65,0000.67,17.1,23.4,01.6,01.1,0664.5,30.9
2021-10-14T01:38:00Z,00000200,01000000,0006.65,0004.20,0002.93,0001.14,0000.77,0000.70,0001.05,0001.12,0000.95,17.0,23.4,01.7,01.1,0664.5,30.9
2021-10-14T01:39:00Z,00000200,01000000,0006.53,0004.29,0002.92,0000.87,0000.44,0000.70,0001.39,0000.72,0000.99,17.0,23.4,01.7,01.2,0664.5,30.9
2021-10-14T01:40:00Z,00000200,01000000,0006.26,0004.56,0003.09,0001.02,0000.76,0000.32,0001.08,0001.22,0000.45,16.9,23.4,01.7,01.2,0664.4,30.9
2021-10-14T01:41:00Z,00000200,01000000,0006.12,0004.42,0002.62,0000.48,0000.40,0000.63,0000.94,0001.19,0000.56,16.9,23.3,01.7,01.2,0664.4,30.9
2021-10-14T01:42:00Z,00000200,01000000,0006.57,0004.32,0002.76,0000.39,0000.74,0000.23,0001.37,0001.02,0001.10,16.9,23.3,01.8,01.2,0664.4,30.9
2021-10-14T01:43:00Z,00000200,01000000,0006.61,0004.72,0002.77,0000.86,0000.53,0000.41,0000.98,0000.96,0000.79,16.9,23.3,01.7,01.2,0664.3,30.9
2021-10-14T01:44:00Z,00000200,01000000,0005.73,0004.39,0002.87,0000.57,0000.38,0000.48,0001.10,0001.12,0000.57,17.0,23.3,01.9,01.3,0664.3,30.9
2021-10-14T01:45:00Z,00000200,01000000,0005.87,0004.30,0002.89,0000.61,0001.05,0000.42,0001.22,0000.69,0000.91,17.0,23.4,01.8,01.2,0664.3,30.9
2021-10-14T01:46:00Z,00000200,01000000,0006.59,0004.21,0002.97,0001.31,0000.75,0000.58,0000.95,0001.30,0000.75,17.1,23.4,01.8,01.2,0664.4,30.9
2021-10-14T01:47:00Z,00000200,01000000,0006.01,0004.37,0002.77,0000.44,0000.68,0000.31,0001.61,0000.69,0000.79,17.2,23.4,01.8,01.2,0664.5,30.9
2021-10-14T01:48:00Z,00000200,01000000,0006.20,0004.43,0002.71,0000.29,0000.84,0000.21,0000.76,0001.38,0000.83,17.2,23.5,01.8,01.2,0664.4,30.9
2021-10-14T01:49:00Z,00000200,01000000,0006.36,0004.23,0002.74,0001.12,0000.23,0000.29,0001.06,0000.84,0000.51,17.3,23.5,01.8,01.2,0664.5,31.0
2021-10-14T01:50:00Z,00000200,01000000,0007.31,0004.26,0002.70,0000.79,0000.61,0000.58,0000.79,0000.64,0000.63,17.2,23.5,01.7,01.1,0664.5,30.9
2021-10-14T01:51:00Z,00000200,01000000,0006.60,0004.54,0002.58,0000.57,0000.57,0000.58,0001.25,0000.72,0000.55,17.2,23.5,01.8,01.2,0664.6,30.9
2021-10-14T01:52:00Z,00000200,01000000,0006.02,0004.22,0002.56,0000.62,0000.69,0000.45,0000.70,0000.86,0000.22,17.2,23.5,01.8,01.2,0664.6,30.9
2021-10-14T01:53:00Z,00000200,01000000,0005.47,0004.56,0002.78,0000.91,0000.61,0000.46,0001.18,0000.97,0000.65,17.1,23.5,01.8,01.2,0664.6,30.9
2021-10-14T01:54:00Z,00000200,01000000,0006.95,0004.21,0002.36,0000.34,0000.83,0000.34,0001.12,0001.01,0001.13,17.1,23.4,01.8,01.2,0664.5,30.9
2021-10-14T01:55:00Z,00000200,01000000,0005.91,0004.13,0002.36,0000.75,0000.84,0000.32,0001.08,0001.14,0000.83,17.0,23.4,01.8,01.2,0664.5,30.9
2021-10-14T01:56:00Z,00000200,01000000,0005.73,0004.22,0002.73,0000.91,0000.48,0000.46,0001.32,0000.85,0000.38,17.0,23.4,01.9,01.3,0664.5,30.9
2021-10-14T01:57:00Z,00000200,40000000,,,,,,,-000.71,-000.51,-000.04,17.0,23.4,01.6,01.1,0664.7,30.9
2021-10-14T01:58:00Z,00000200,60000000,,,,,,,0000.26,0000.17,-000.19,16.7,23.5,01.5,01.0,0663.5,30.9
2021-10-14T01:59:00Z,00000200,20000000,,,,,,,0000.22,0000.24,0000.50,16.7,23.6,01.5,01.0,0663.5,30.9
